GFSNE_con_lsi_159.txt.gz
Lid_Strength_Index
5 6 6 6 6 7 7 7 8 10 10 9 9 6 7 6 5 7 6 3 3 2 2 2 3 3 3 3 3 3 2 3 3 3 2 1 1 0
5 6 6 7 7 7 7 7 8 10 12 10 9 8 7 7 6 7 7 5 4 2 2 2 3 3 3 2 2 3 3 3 3 3 3 2 2 1
6 7 7 9 10 10 9 10 10 12 13 11 10 9 9 9 9 8 8 8 7 3 2 2 4 4 3 3 3 4 5 5 5 5 5 4 3 3
8 9 10 9 11 12 11 12 12 12 12 12 11 10 10 9 9 10 8 7 8 5 3 3 4 4 4 4 4 4 5 6 6 6 6 5 4 3
9 10 11 12 13 13 12 13 12 11 11 12 13 11 11 10 10 10 9 9 7 5 4 3 4 4 5 5 5 4 5 6 7 7 7 6 5 5
10 12 12 13 13 12 12 13 12 12 12 13 13 13 12 11 11 12 10 9 9 7 5 4 4 5 5 5 6 6 6 6 7 8 7 7 7 6
12 12 13 11 8 9 11 12 11 11 12 13 14 13 12 11 11 12 11 10 9 9 8 8 7 8 8 7 7 6 7 7 8 8 8 8 8 7
13 13 14 13 12 10 8 7 7 12 13 13 13 13 13 11 11 10 11 11 12 8 8 8 9 9 9 8 7 7 8 9 9 8 8 8 8 8
15 15 15 14 14 14 11 9 8 7 7 11 12 12 12 10 11 12 10 11 11 9 10 10 8 9 9 8 8 9 9 9 9 9 8 9 8 9
15 16 16 16 14 14 13 12 12 11 11 9 11 11 11 10 10 11 11 11 10 9 10 11 9 10 9 9 9 9 9 9 9 9 9 9 9 9
15 15 15 16 13 12 12 13 13 12 8 7 7 8 8 8 7 9 10 11 11 11 11 13 11 10 10 12 11 10 9 9 8 8 8 8 8 9
16 16 12 14 12 11 14 14 14 13 12 11 11 10 9 9 7 9 10 11 11 12 11 12 13 10 13 11 11 11 10 9 8 8 8 8 8 8
15 15 15 12 12 11 11 13 13 11 11 11 11 11 10 9 9 9 9 11 11 11 9 12 12 11 13 13 12 11 10 9 9 9 8 8 8 8
15 14 13 11 11 10 11 11 10 10 11 11 10 10 11 10 9 9 9 10 9 10 10 11 12 12 13 13 14 12 10 9 9 9 9 8 8 9
14 11 10 10 10 10 9 9 10 11 12 11 11 11 11 10 9 9 9 9 9 9 9 9 10 12 12 13 14 13 12 11 9 10 9 9 9 9
11 11 10 10 9 9 10 10 10 10 11 12 12 10 10 10 10 9 10 10 10 10 9 9 10 11 12 12 12 13 12 13 11 10 10 9 9 9
11 12 12 13 12 12 12 11 11 11 11 11 11 11 10 10 10 9 10 11 11 11 11 10 10 10 11 12 13 13 12 12 11 11 11 10 10 9
12 13 13 13 12 12 12 12 12 10 11 10 11 11 11 11 10 10 10 11 12 11 12 11 11 12 13 12 11 14 13 13 12 12 11 11 11 10
13 13 12 12 12 12 12 12 12 12 11 11 11 12 11 11 10 11 11 11 12 11 12 11 12 14 16 16 13 12 14 14 14 14 11 11 12 11
12 12 12 12 12 12 12 12 12 12 12 12 12 12 12 11 11 11 12 12 12 12 12 11 13 14 15 16 16 14 12 13 12 13 13 11 11 12
12 12 12 12 12 12 12 12 13 13 13 13 13 13 12 12 11 11 12 12 12 12 13 13 14 14 13 12 15 14 13 11 11 11 12 13 13 13
12 11 11 11 12 12 12 13 14 14 14 14 14 14 13 12 11 12 12 12 12 12 12 12 12 14 14 14 15 15 14 13 11 10 10 12 14 16
11 11 12 11 12 12 13 14 15 15 15 14 14 14 13 12 11 12 13 12 12 12 12 13 12 14 15 15 15 15 15 14 13 12 12 11 10 10

GFSNE_con_lsi_162.txt.gz
Lid_Strength_Index
8 7 7 8 8 8 9 9 10 13 12 11 13 10 9 9 7 10 9 5 5 5 4 3 2 3 3 3 3 2 2 2 2 2 2 2 2 2
8 8 9 10 10 11 11 12 12 12 15 13 13 12 10 9 8 10 9 6 6 6 4 3 3 4 4 4 4 4 3 3 3 3 3 3 3 4
9 10 11 12 12 13 13 14 14 14 15 14 13 12 11 11 10 10 9 10 9 6 4 3 3 4 4 4 5 5 4 4 4 4 4 4 5 4
11 12 12 11 14 14 15 14 14 14 15 16 15 13 12 11 11 11 10 9 10 6 4 4 3 4 4 4 5 6 5 5 5 5 5 5 6 5
12 13 13 13 14 14 14 14 13 13 14 15 15 13 12 12 11 11 11 11 8 5 5 4 4 4 4 5 5 6 6 6 6 7 7 7 7 7
13 13 13 13 13 13 13 13 13 14 14 15 14 14 14 12 12 13 11 10 10 8 6 6 5 5 5 6 6 6 6 6 7 8 8 8 8 8
14 13 12 10 9 10 12 13 13 15 15 14 14 14 14 13 13 13 13 11 9 10 10 9 8 8 8 7 7 6 7 8 9 9 9 8 8 8
16 16 14 13 12 9 9 8 11 14 14 14 14 15 14 14 13 12 13 12 13 10 9 10 8 9 9 9 7 7 8 9 9 9 9 9 8 8
17 17 15 14 14 14 12 11 11 8 8 13 14 14 14 13 13 13 11 12 12 10 10 11 9 10 9 9 8 9 9 9 9 9 9 9 9 9
17 18 17 16 13 14 14 14 13 12 11 10 12 13 12 11 11 11 12 12 11 10 11 12 9 10 10 10 9 9 9 9 9 9 8 8 9 9
16 17 16 16 12 12 14 14 13 12 9 8 8 8 9 8 7 10 11 12 12 12 12 13 12 11 12 11 10 9 9 8 8 8 8 8 8 8
17 16 12 14 12 11 14 15 14 13 12 12 12 11 10 9 7 9 10 12 12 13 11 12 12 11 14 12 10 9 9 8 8 8 8 8 8 8
16 15 15 11 11 11 11 13 13 12 12 13 12 11 11 10 9 9 9 12 12 13 10 12 11 12 13 13 10 9 9 9 9 9 8 8 8 8
15 15 14 10 10 10 11 11 10 11 13 12 12 12 11 11 10 10 10 11 10 11 10 12 12 13 13 14 13 11 10 10 10 10 9 8 9 9
13 10 10 11 11 11 10 10 10 12 12 13 13 12 12 11 10 10 10 10 10 11 9 11 11 12 12 13 14 12 12 11 10 10 10 9 10 9
10 11 10 11 10 11 12 11 12 11 13 14 14 13 11 10 11 10 11 11 11 11 10 10 11 12 13 13 13 13 12 13 11 10 10 9 9 9
12 13 14 14 14 14 13 12 13 12 12 13 13 12 12 11 11 10 11 12 12 12 12 11 11 12 12 12 14 13 13 13 12 11 10 10 9 9
14 15 15 14 14 14 14 14 13 13 13 13 13 13 13 12 12 11 11 12 13 13 13 12 13 14 14 12 11 13 13 13 11 10 10 11 11 10
14 15 14 14 13 13 14 15 15 14 14 13 14 13 13 13 12 12 12 12 13 13 13 12 14 15 17 17 13 11 14 13 11 12 12 11 12 11
14 14 14 13 13 14 14 15 15 15 14 14 14 14 14 13 13 13 13 13 13 13 13 13 15 15 17 17 16 13 12 13 12 12 13 12 11 11
14 14 13 14 14 14 15 15 16 15 15 15 15 15 14 14 13 13 14 13 13 13 15 14 15 15 14 13 15 15 13 11 11 12 13 14 14 13
13 14 14 14 14 15 16 16 17 16 16 15 16 15 15 14 14 14 14 14 14 14 14 13 14 15 15 15 16 15 14 12 11 10 10 11 14 16
14 14 14 15 15 15 16 17 17 17 16 16 16 16 15 15 13 14 14 14 13 14 14 14 14 16 16 16 16 15 14 13 12 12 11 10 10 10

GFSNE_con_lsi_165.txt.gz
Lid_Strength_Index
10 10 10 10 10 11 12 10 11 14 14 12 15 12 12 12 10 11 11 6 6 6 5 4 4 4 3 3 4 4 3 3 2 2 2 2 2 1
11 12 12 12 12 13 13 14 14 14 17 15 14 14 13 11 10 10 10 7 7 6 5 5 4 4 4 4 4 4 4 4 3 4 3 3 2 2
12 12 13 14 14 14 14 14 15 15 17 16 14 14 14 14 12 11 10 11 10 7 5 5 4 4 4 4 4 5 5 5 5 5 4 4 4 3
12 13 13 13 15 15 15 15 15 16 17 17 16 15 14 13 12 12 11 10 10 7 5 4 4 4 4 4 5 5 5 6 5 5 5 5 5 5
14 13 13 13 14 14 14 14 15 14 16 16 16 15 14 13 12 12 11 11 9 5 5 5 5 5 4 5 6 6 6 6 6 7 7 7 7 7
13 12 12 13 14 14 13 14 15 16 16 16 16 16 15 13 14 14 12 10 10 8 7 6 6 6 6 6 6 6 6 7 7 8 8 8 8 8
13 12 11 9 8 10 14 15 16 16 16 16 16 16 16 15 14 13 12 11 10 11 10 9 9 9 8 8 7 7 8 8 9 9 9 8 8 8
15 14 14 12 10 9 10 9 11 15 16 16 16 17 16 15 14 13 14 12 14 11 10 11 9 9 9 9 8 8 8 8 8 9 9 9 9 9
16 15 14 13 14 15 12 11 10 9 10 14 16 16 15 13 14 13 12 12 13 10 11 11 9 10 9 10 9 8 8 8 8 8 8 8 9 9
16 16 16 16 14 15 15 14 14 13 12 12 14 13 13 12 11 12 13 13 12 11 12 13 10 11 10 11 9 8 7 8 8 8 8 8 8 8
16 16 16 15 12 12 15 15 15 14 11 10 9 9 9 9 8 11 12 13 13 13 13 13 11 11 12 11 10 8 8 8 8 8 8 7 8 8
17 15 12 13 12 12 15 15 15 16 14 13 13 11 11 11 9 11 12 13 14 15 13 13 12 13 15 11 11 9 9 8 9 9 8 8 8 8
15 14 13 11 11 11 12 14 14 15 13 14 13 12 12 11 10 10 11 13 13 15 11 13 13 14 14 13 11 10 10 10 10 10 9 8 8 9
14 14 12 11 11 12 12 12 11 13 14 14 13 13 13 12 11 11 11 12 11 13 12 13 14 14 14 14 14 12 11 10 10 10 10 9 8 9
12 11 11 12 12 12 12 11 12 13 13 14 15 14 13 12 11 11 11 11 11 12 11 12 13 13 13 15 15 13 13 11 10 10 10 10 10 10
11 12 12 12 12 13 14 13 13 12 14 15 15 15 13 12 12 11 13 12 13 12 12 11 13 13 14 13 13 13 12 13 11 10 9 9 9 9
13 14 15 16 16 16 16 15 14 14 14 14 15 14 13 13 13 12 13 13 14 14 13 12 14 13 13 12 13 12 12 12 11 10 9 10 10 9
14 15 16 16 17 17 16 16 15 14 15 15 15 15 14 14 13 13 13 14 14 14 14 14 15 15 14 13 11 13 13 13 11 10 10 11 11 10
15 16 16 16 16 16 16 16 16 16 16 15 16 15 15 14 14 14 14 14 14 14 14 14 16 16 18 18 14 11 13 12 12 11 11 12 12 11
15 16 16 17 16 17 17 17 17 16 16 16 16 16 15 15 14 15 15 15 15 15 15 14 16 17 17 17 17 14 12 12 13 13 13 12 12 11
15 16 16 16 17 17 18 18 17 17 16 16 16 16 16 15 15 15 15 14 14 15 16 16 16 15 14 14 15 15 13 11 10 12 13 14 14 14
16 16 16 16 17 18 18 18 18 17 17 17 17 17 16 16 15 15 15 15 15 15 16 15 15 16 15 16 16 15 14 12 10 9 10 11 13 15
15 16 16 17 17 18 18 18 18 17 17 17 17 17 17 16 15 15 15 15 15 15 15 16 15 16 16 16 16 15 14 13 12 12 11 10 10 10

GFSNE_con_lsi_168.txt.gz
Lid_Strength_Index
10 10 11 12 11 11 9 8 9 11 10 9 12 10 10 10 9 8 9 7 7 6 5 5 4 4 4 3 3 3 3 3 3 2 2 2 2 2
11 12 12 13 12 12 12 12 11 11 13 12 11 11 10 10 9 9 9 8 7 6 5 5 5 4 4 4 4 3 3 4 4 3 3 3 3 3
12 12 13 12 13 13 13 13 13 13 14 13 12 11 10 10 10 10 9 9 8 7 5 5 5 4 4 4 4 4 5 4 5 5 4 4 4 4
12 13 13 13 13 12 13 13 13 13 13 13 13 12 11 10 10 10 10 9 8 7 5 5 5 5 5 5 5 5 5 5 5 5 5 5 5 5
12 13 13 12 12 12 12 13 13 12 13 13 13 12 11 11 11 10 9 9 8 6 6 6 5 5 5 5 6 5 6 7 7 8 8 7 7 7
12 12 12 12 12 12 12 13 13 13 13 13 13 12 12 11 11 11 11 9 9 7 7 7 6 6 6 6 6 6 7 8 8 8 8 8 8 8
12 11 11 10 10 11 12 13 13 13 13 13 13 13 13 13 12 11 11 10 9 8 8 8 8 7 7 7 7 7 7 7 7 7 7 8 8 8
13 13 11 9 9 9 9 10 11 12 13 13 14 14 13 12 11 11 11 11 12 8 9 9 8 8 8 8 8 9 7 7 7 7 7 7 8 8
14 14 13 12 12 11 11 10 10 10 11 13 13 13 12 11 10 11 11 11 11 10 10 10 8 10 8 10 9 8 7 8 8 8 8 7 7 8
14 14 14 13 13 13 12 12 12 11 11 11 12 11 10 9 9 10 10 11 10 9 9 12 9 10 10 10 9 8 8 8 8 8 8 7 7 8
15 14 13 13 12 12 12 13 13 13 11 11 11 11 10 9 9 10 11 12 12 11 9 11 11 13 12 11 9 9 9 8 8 8 8 8 8 8
14 12 12 12 12 12 13 13 14 14 13 13 12 11 10 9 9 10 11 12 12 12 10 12 14 14 14 11 11 10 9 8 9 9 8 8 8 8
14 13 12 11 12 12 12 13 13 13 13 13 12 11 10 10 10 10 10 11 12 12 10 12 14 14 14 13 11 10 9 9 10 9 9 8 8 9
13 12 11 12 12 12 12 13 13 13 13 12 11 12 12 11 10 10 10 10 10 11 10 11 14 14 14 14 13 11 10 9 10 10 9 9 9 9
12 12 12 12 13 13 13 13 13 13 12 12 12 12 12 11 10 10 10 10 10 10 10 12 13 13 13 14 14 13 11 10 9 9 9 10 10 9
12 13 13 13 14 14 14 13 13 12 12 13 13 12 11 11 11 11 11 11 12 11 10 11 12 12 14 14 13 13 12 12 10 9 9 9 9 9
13 14 15 15 16 15 14 13 12 12 12 12 13 13 12 12 12 11 12 12 13 12 12 12 12 12 11 12 13 13 12 11 10 10 10 10 10 9
14 16 16 16 16 15 14 13 13 12 13 13 13 13 13 12 12 12 12 13 13 13 13 13 14 14 13 11 11 13 12 12 11 11 10 11 11 10
15 16 16 16 16 15 14 14 13 13 12 13 13 13 13 12 12 12 13 13 13 13 12 12 14 16 16 16 13 10 13 12 12 12 12 12 13 11
15 16 16 16 15 15 14 14 13 13 13 13 13 13 13 13 13 13 13 13 13 13 13 12 14 15 16 17 16 14 11 11 12 13 13 12 12 11
15 16 15 15 15 15 15 14 14 13 13 13 13 13 13 13 13 13 13 13 13 13 13 13 14 15 13 13 14 13 11 10 10 12 12 14 13 12
15 15 15 15 15 15 14 14 13 13 13 13 13 13 13 13 13 13 13 13 13 13 13 12 12 13 14 15 16 14 13 11 10 9 9 10 12 14
14 14 15 15 15 14 14 13 13 13 13 13 13 13 13 13 13 12 12 12 12 12 12 12 12 13 14 15 15 14 13 12 11 11 10 10 10 10